Address 0xa400fa2faa705daa99c710bfa448146e84fcbd1d 1

Txn Hash Method
Block
From
To
Value [Txn Fee]
0x3680a18461257ea7d91fe5bcfd611b05aec1b7f1f45d1837ad66fd0d35bf3506Swap Exact Token...185178272022-08-11 20:20:0831 mins ago0xa400fa2faa705daa99c710bfa448146e84fcbd1dOUT Trader Joe: Router0 AVAX0.‍00330368527.‍5
0x4e914a92fc8e0930147c39732c180e043532140a3123a2cb76c26dc9c5e82966Swap Exact Token...185176522022-08-11 20:14:2037 mins ago0xa400fa2faa705daa99c710bfa448146e84fcbd1dOUT Trader Joe: Router0 AVAX0.‍00330368527.‍5
0x0d32d67ae3aa0037bc23cf26fd1026a8ed8a08f3e37d0f6f34f8b6a857869aceSwap Tokens For ...185176132022-08-11 20:13:0238 mins ago0xa400fa2faa705daa99c710bfa448146e84fcbd1dOUT Trader Joe: Router0 AVAX0.‍0031385227.‍5
0x8c84ea5eaec8ef1e5ffd1c1ea132b931f29f2c062547b9493af05da53444dde7Swap Tokens For ...185174202022-08-11 20:06:3645 mins ago0xa400fa2faa705daa99c710bfa448146e84fcbd1dOUT Trader Joe: Router0 AVAX0.‍0031385227.‍5
0x1db6d87d01a23920157af464984daab4ed4d82e69da2848fa766432c908b3095Swap Exact Token...185170312022-08-11 19:53:3858 mins ago0xa400fa2faa705daa99c710bfa448146e84fcbd1dOUT Trader Joe: Router0 AVAX0.‍00330368527.‍5
0x504281cf7897527ae6164fb4f78f65f4b9c17f5095fb50751a4a7725d45e5c27Swap Tokens For ...185164012022-08-11 19:32:281 hr 19 mins ago0xa400fa2faa705daa99c710bfa448146e84fcbd1dOUT Trader Joe: Router0 AVAX0.‍0031385227.‍5
0x3729ff72d31e16d32cc175064b97046fe41cc63e661cb7df05e434745485f3beSwap Exact Token...185162432022-08-11 19:27:111 hr 24 mins ago0xa400fa2faa705daa99c710bfa448146e84fcbd1dOUT Trader Joe: Router0 AVAX0.‍00330368527.‍5
0xb1ae1458372d177818ac44e75705bb2216c29d883e24c88718b7542363620712Swap Tokens For ...185160302022-08-11 19:20:031 hr 31 mins ago0xa400fa2faa705daa99c710bfa448146e84fcbd1dOUT Trader Joe: Router0 AVAX0.‍0031385227.‍5
0x4ea547374461920640e4a689e3064568c7fa7256bc236b0349808d54dc75fbb8Swap Tokens For ...185159562022-08-11 19:17:371 hr 34 mins ago0xa400fa2faa705daa99c710bfa448146e84fcbd1dOUT Trader Joe: Router0 AVAX0.‍0031385227.‍5
0x75c4bf1386944612785c34bf53fbaca83e1109e78ae142d78e62d06c3442a4a3Swap Exact Token...185143162022-08-11 18:22:452 hrs 28 mins ago0xa400fa2faa705daa99c710bfa448146e84fcbd1dOUT Trader Joe: Router0 AVAX0.‍00330368527.‍5
0xad28091a55e73355519d57a6a199a3610280cab743bca94752e3015bff763ffcSwap Tokens For ...185142552022-08-11 18:20:412 hrs 30 mins ago0xa400fa2faa705daa99c710bfa448146e84fcbd1dOUT Trader Joe: Router0 AVAX0.‍0031385227.‍5
0x66fdb2d0b47f4464a6188564dc9949e4d8cf11d2cc0a2d6c23468e1161cbfcf5Swap Exact Token...185134582022-08-11 17:54:042 hrs 57 mins ago0xa400fa2faa705daa99c710bfa448146e84fcbd1dOUT Trader Joe: Router0 AVAX0.‍00330368527.‍5
0xa6691ede6a32fa61f0a4e8b35caf31725e6501ebd94fcee865d09183463041a3Swap Tokens For ...185132812022-08-11 17:48:073 hrs 3 mins ago0xa400fa2faa705daa99c710bfa448146e84fcbd1dOUT Trader Joe: Router0 AVAX0.‍0031385227.‍5
0xb13410ea6d598b9dff5320ceac7dee05114c91eed34bc77fe8a7f38d317afca5Swap Exact Token...185121352022-08-11 17:09:523 hrs 41 mins ago0xa400fa2faa705daa99c710bfa448146e84fcbd1dOUT Trader Joe: Router0 AVAX0.‍00330335527.‍5
0xcadac1cd9bfefaae923ad454542e9539be02f2a6a5f0d9ca90c4544edd3a6db1Swap Tokens For ...185117552022-08-11 16:57:043 hrs 54 mins ago0xa400fa2faa705daa99c710bfa448146e84fcbd1dOUT Trader Joe: Router0 AVAX0.‍0031385227.‍5
0xfcf80b6d2739028c0d698761d9bb118583bf8557594ed3468333ce992efc5eb5Swap Tokens For ...185112342022-08-11 16:39:394 hrs 11 mins ago0xa400fa2faa705daa99c710bfa448146e84fcbd1dOUT Trader Joe: Router0 AVAX0.‍0031385227.‍5
0x3cad5ee44878b639ab09673fb69ebef6a39e14e9f34fb45927f11b099e9959b0Swap Exact Token...185085952022-08-11 15:11:055 hrs 40 mins ago0xa400fa2faa705daa99c710bfa448146e84fcbd1dOUT Trader Joe: Router0 AVAX0.‍00330368527.‍5
0x39ac7597f1b563b22e312ce5777c4ed2338bb6ac7f1194c5e0abab7825cd1d09Swap Tokens For ...185084142022-08-11 15:05:005 hrs 46 mins ago0xa400fa2faa705daa99c710bfa448146e84fcbd1dOUT Trader Joe: Router0 AVAX0.‍0031385227.‍5
0xd28f6baffd9c59279439c84d1c6e6d36c608ab91f12783605d4fb52855f5e717Swap Exact Token...185082852022-08-11 15:00:425 hrs 50 mins ago0xa400fa2faa705daa99c710bfa448146e84fcbd1dOUT Trader Joe: Router0 AVAX0.‍00330335527.‍5
0xc4029eb348928a3885990a550ee7475bce57d0846d10b1641270345bc77284deSwap Tokens For ...185082222022-08-11 14:58:365 hrs 53 mins ago0xa400fa2faa705daa99c710bfa448146e84fcbd1dOUT Trader Joe: Router0 AVAX0.‍0031385227.‍5
0xcf554c4ceafe095406993d6439c72602cb55eb00a1b941e1a8b64edc7af64f6fSwap Exact Token...185057912022-08-11 13:37:267 hrs 14 mins ago0xa400fa2faa705daa99c710bfa448146e84fcbd1dOUT Trader Joe: Router0 AVAX0.‍00330368527.‍5
0xdfd79db9a0aa33bb77ae4fe8e7132c36b7c37b2a1027350c767aa4f3ef805845Swap Tokens For ...185056132022-08-11 13:31:287 hrs 20 mins ago0xa400fa2faa705daa99c710bfa448146e84fcbd1dOUT Trader Joe: Router0 AVAX0.‍0031385227.‍5
0x64a7f00b6f14fb2e1d072ff9279c0317e9cca5de268cb39e3a945a879e6ed9c9Swap Exact Token...185055882022-08-11 13:30:387 hrs 21 mins ago0xa400fa2faa705daa99c710bfa448146e84fcbd1dOUT Trader Joe: Router0 AVAX0.‍00330368527.‍5
0x54e0c45b0eeda2f38d22f27f6e06dbea839dd45ca0f8fe88e6ef27b1f507b194Swap Exact Token...185054452022-08-11 13:25:527 hrs 25 mins ago0xa400fa2faa705daa99c710bfa448146e84fcbd1dOUT Trader Joe: Router0 AVAX0.‍00330368527.‍5
0xa5d34e74cbd6d25afd369f523487af29fc06c75acc311915ce9d639c9bb523ddSwap Exact Token...185051222022-08-11 13:15:007 hrs 36 mins ago0xa400fa2faa705daa99c710bfa448146e84fcbd1dOUT Trader Joe: Router0 AVAX0.‍00330368527.‍5
[ Download CSV Export 
Parent Txn Hash Block From To Value
Loading

Contract Name:
0

Compiler Version
0

Optimization Enabled:
0

Other Settings:
-NA-
Block Transaction Gas Used Reward
Age Block Fee Address BC Fee Address Voting Power Jailed Incoming
Block Uncle Number Difficulty Gas Used Reward
Loading
Make sure to use the "Vote Down" button for any spammy posts, and the "Vote Up" for interesting conversations.